Regional Weather Roundup
Issued by NWS

Home | Current Version | Previous Version | Graphics & Text | Print | Product List | Glossary Off
Versions: 1 2 3 4 5 6 7 8 9 10 11 12 13 14 15 16 17 18 19 20 21 22 23 24 25 26 27 28 29 30 31 32 33 34 35 36 37 38 39 40 41 42 43 44 45 46 47 48 49 50

000
ASUS43 KDMX 272103
RWRIA

WEATHER ROUNDUP FOR IOWA
NATIONAL WEATHER SERVICE DES MOINES IA
400 PM CDT WED JUL 27 2016

NOTE: "FAIR" INDICATES FEW OR NO CLOUDS BELOW 12,000 FEET WITH NO
SIGNIFICANT WEATHER AND/OR OBSTRUCTIONS TO VISIBILITY.

* - THESE STATIONS ARE NOT NWS STATIONS...THUS NOT UNDER NWS
QUALITY CONTROL.  THEY ALSO DO NOT REPORT WEATHER SUCH
AS PRECIPITATION OR FOG.

IAZ001>003-012>014-020>022-031>034-043>046-272200-
   NORTHWEST IOWA

CITY           SKY/WX    TMP DP  RH WIND       PRES   REMARKS
CARROLL *      MOSUNNY   81  72  74 VRB5      29.98S HX  84
CHEROKEE *     PTSUNNY   85  68  57 NW9G18    29.97S HX  88
DENISON *      SUNNY     81  68  65 VRB5      29.97S HX  83
LE MARS *      MOSUNNY   86  66  51 W6        29.97F HX  88
SHELDON *      MOSUNNY   82  70  65 VRB6G13   29.97S HX  86
SIOUX CITY     CLOUDY    89  68  49 W3        29.96F HX  93
SPENCER        MOSUNNY   85  68  56 NW9       29.96F HX  88
STORM LAKE *   SUNNY     82  72  69 VRB6      29.98F HX  87
$$

IAZ055>058-069>071-079>083-090>094-272200-
   SOUTHWEST IOWA

CITY           SKY/WX    TMP DP  RH WIND       PRES   REMARKS
ATLANTIC *     CLOUDY    75  66  73 S5        29.98S
CLARINDA *       N/A     84  73  70 MISG      29.98S HX  91
COUNCIL BLFS * MOSUNNY   82  70  65 NE8       29.98S HX  86
CRESTON *      PTSUNNY   81  70  69 W5        29.99F HX  84
HARLAN  *      SUNNY     79  68  69 CALM      30.01F HX  81
LAMONI         MOSUNNY   84  69  60 SW8       29.96F HX  88
RED OAK *      DRIZZLE   75  72  88 E12       29.97S
SHENANDOAH *   CLOUDY    84  75  74 SW7       29.96F HX  92
$$

IAZ047>049-059>061-072>074-084-272200-
   CENTRAL IOWA

CITY           SKY/WX    TMP DP  RH WIND       PRES   REMARKS
AMES           CLOUDY    82  71  69 CALM      29.97F HX  86
ANKENY *         N/A    N/A N/A N/A MISG        N/A
BOONE *        PTSUNNY   81  68  65 SW5       29.97F HX  83
CHARITON *       N/A    N/A N/A N/A MISG        N/A
DES MOINES     CLOUDY    82  69  64 W5        29.96S HX  85
GRINNELL*      PTSUNNY   80  67  63 W6        29.98S HX  82
KNOXVILLE *    CLOUDY    84  68  58 W5        29.95S HX  87
MARSHALLTOWN   PTSUNNY   77  71  82 W3        29.97S
NEWTON *       CLOUDY    79  72  78 CALM      29.97R HX  82
PELLA *        CLOUDY    85  67  54 CALM      29.96F HX  88
PERRY *          N/A     81  74  78 CALM      29.98F HX  86
$$

IAZ004>006-015-016-023>025-035-036-272200-
   NORTH CENTRAL IOWA

CITY           SKY/WX    TMP DP  RH WIND       PRES   REMARKS
ALGONA *       MOSUNNY   82  70  65 S9        29.96F HX  86
ESTHERVILLE    CLOUDY    81  72  74 NW12      29.96S HX  85
FORT DODGE *   SUNNY     82  70  65 SW7       29.98F HX  86
MASON CITY     MOSUNNY   82  66  58 SW14      29.97F HX  84
FOREST CITY *    N/A     81  64  57 S12       29.96F HX  82
IOWA FALLS *     N/A     80  67  66 SW3       29.99F HX  82
$$

IAZ007>011-017>019-026>030-037>042-050>054-066-272200-
   NORTHEAST IOWA

CITY           SKY/WX    TMP DP  RH WIND       PRES   REMARKS
CEDAR RAPIDS   CLOUDY    83  72  69 S6        29.95F HX  88
CHARLES CITY * CLOUDY    81  70  69 SW9       29.98S HX  84
CLINTON *      MOSUNNY   86  71  60 SW5       29.96F HX  91
DECORAH *      MOSUNNY   81  68  65 VRB5G13   29.95F HX  83
DUBUQUE        MOSUNNY   81  66  60 SW5       29.98F HX  83
MONTICELLO *   CLOUDY    82  68  61 CALM      29.96F HX  85
OELWEIN *      CLOUDY    79  70  73 S6        29.98F HX  81
WATERLOO       CLOUDY    80  66  62 SW9       29.96F HX  82
$$

IAZ064-065-067-068-078-272200-
   EAST CENTRAL IOWA

CITY           SKY/WX    TMP DP  RH WIND       PRES   REMARKS
DAVENPORT      MOSUNNY   85  69  58 W8        29.95F HX  89
IOWA CITY      CLOUDY    84  68  58 S7        29.96F HX  87
MT. PLEASANT * PTSUNNY   88  69  53 CALM      29.94F HX  92
MUSCATINE *    MOSUNNY   86  68  54 S6        29.94F HX  89
QUAD CITIES    MOSUNNY   87  67  51 SW5       29.94F HX  90
$$

IAZ062-063-075>077-085>089-095>099-272200-
   SOUTHEAST IOWA

CITY           SKY/WX    TMP DP  RH WIND       PRES   REMARKS
BURLINGTON     MOSUNNY   85  69  58 S3        29.94F HX  89
FAIRFIELD *    MOSUNNY   84  68  58 W7        29.95S HX  87
KEOKUK *       PTSUNNY   86  70  58 S5        29.93S HX  90
OSKALOOSA *      N/A     83  67  57 CALM      29.95F HX  86
CENTERVILLE *    N/A     84  68  58 CALM      29.97S HX  87
OTTUMWA        MOSUNNY   85  66  53 CALM      29.94F HX  87
WASHINGTON *   MOSUNNY   84  70  61 CALM      29.96S HX  88
$$

ABBREVIATIONS USED IN REMARKS
   TC - TEMPERATURES IN CELSIUS
  WCI - WIND CHILL INDEX
   HX - HEAT INDEX
  VSB - VISIBILITY
$$




USA.gov is the U.S. government's official web portal to all federal, state and local government web resources and services.